| time (UTC) | temp F | wind direction | speed knots | gust knots | rain 1hr in | rain 24hr in | rain mn in | humidity % | barometer mb |
| 20260504081503 | 69 | 209 | 2.6 | 9.6 | 0.00 | 0.00 | 0.00 | 84 | 1014.4 |
| 20260504081003 | 69 | 208 | 2.6 | 7.0 | 0.00 | 0.00 | 0.00 | 84 | 1014.2 |
| 20260504080504 | 68 | 213 | 2.6 | 7.0 | 0.00 | 0.00 | 0.00 | 85 | 1014.2 |
| 20260504060215 | 64 | 211 | 1.7 | 5.2 | 0.00 | 0.00 | 0.00 | 88 | 1014.0 |
| 20260504050503 | 65 | 214 | 1.7 | 5.2 | 0.00 | 0.00 | 0.00 | 90 | 1013.4 |
| 20260504050216 | 65 | 215 | 1.7 | 5.2 | 0.00 | 0.00 | 0.00 | 90 | 1013.3 |
| 20260504045504 | 65 | 209 | 1.7 | 5.2 | 0.00 | 0.00 | 0.00 | 90 | 1013.2 |
| 20260504045004 | 65 | 207 | 1.7 | 5.2 | 0.00 | 0.00 | 0.00 | 90 | 1013.5 |
| 20260504044506 | 65 | 214 | 0.9 | 3.5 | 0.00 | 0.00 | 0.00 | 90 | 1013.2 |
| 20260504044003 | 65 | 221 | 1.7 | 5.2 | 0.00 | 0.00 | 0.00 | 90 | 1013.3 |
| 20260504043504 | 65 | 208 | 1.7 | 5.2 | 0.00 | 0.00 | 0.00 | 90 | 1013.4 |
| 20260504043003 | 65 | 202 | 1.7 | 5.2 | 0.00 | 0.00 | 0.00 | 90 | 1013.7 |
| 20260504042503 | 65 | 210 | 1.7 | 7.8 | 0.00 | 0.00 | 0.00 | 90 | 1013.3 |
| 20260504042215 | 65 | 204 | 2.6 | 7.8 | 0.00 | 0.00 | 0.00 | 90 | 1013.4 |
| 20260504041504 | 65 | 207 | 2.6 | 7.8 | 0.00 | 0.00 | 0.00 | 90 | 1013.3 |
| 20260504041004 | 65 | 211 | 2.6 | 7.0 | 0.00 | 0.00 | 0.00 | 90 | 1013.3 |
| 20260504040504 | 65 | 205 | 1.7 | 7.0 | 0.00 | 0.00 | 0.00 | 90 | 1013.5 |
| 20260504040003 | 65 | 212 | 1.7 | 6.1 | 0.00 | 0.00 | 0.00 | 90 | 1013.3 |
| 20260504035503 | 65 | 223 | 0.9 | 5.2 | 0.00 | 0.00 | 0.00 | 90 | 1013.4 |
| 20260504035004 | 65 | 218 | 0.9 | 3.5 | 0.00 | 0.00 | 0.00 | 90 | 1013.5 |
| 20260504034504 | 65 | 213 | 1.7 | 5.2 | 0.00 | 0.00 | 0.00 | 90 | 1013.2 |
| 20260504034213 | 65 | 213 | 1.7 | 5.2 | 0.00 | 0.00 | 0.00 | 90 | 1013.4 |
| 20260504033503 | 65 | 207 | 1.7 | 6.1 | 0.00 | 0.00 | 0.00 | 90 | 1013.4 |
| 20260504033003 | 65 | 207 | 1.7 | 6.1 | 0.00 | 0.00 | 0.00 | 90 | 1013.4 |
| 20260504032503 | 65 | 205 | 2.6 | 6.1 | 0.00 | 0.00 | 0.00 | 90 | 1013.6 |
| 20260504032003 | 65 | 201 | 2.6 | 6.1 | 0.00 | 0.00 | 0.00 | 90 | 1013.6 |
| 20260504031503 | 65 | 208 | 1.7 | 5.2 | 0.00 | 0.00 | 0.00 | 90 | 1013.6 |
| 20260504031004 | 65 | 215 | 1.7 | 3.5 | 0.00 | 0.00 | 0.00 | 90 | 1013.7 |
| 20260504030503 | 65 | 212 | 1.7 | 5.2 | 0.00 | 0.00 | 0.00 | 90 | 1013.8 |
| 20260504030217 | 65 | 212 | 1.7 | 5.2 | 0.00 | 0.00 | 0.00 | 90 | 1013.8 |
| 20260504025504 | 65 | 211 | 1.7 | 5.2 | 0.00 | 0.00 | 0.00 | 90 | 1014.0 |
| 20260504025003 | 65 | 203 | 2.6 | 6.1 | 0.00 | 0.00 | 0.00 | 90 | 1014.1 |
| 20260504024503 | 65 | 201 | 2.6 | 6.1 | 0.00 | 0.00 | 0.00 | 90 | 1014.1 |
| 20260504024214 | 65 | 201 | 2.6 | 6.1 | 0.00 | 0.00 | 0.00 | 90 | 1014.0 |
| 20260504023503 | 65 | 210 | 1.7 | 5.2 | 0.00 | 0.00 | 0.00 | 90 | 1014.0 |
| 20260504023003 | 65 | 203 | 1.7 | 7.0 | 0.00 | 0.00 | 0.00 | 90 | 1013.9 |
| 20260504022504 | 65 | 194 | 2.6 | 7.0 | 0.00 | 0.00 | 0.00 | 90 | 1014.0 |
| 20260504022003 | 65 | 194 | 2.6 | 7.0 | 0.00 | 0.00 | 0.00 | 90 | 1013.9 |
| 20260504021503 | 65 | 196 | 2.6 | 7.0 | 0.00 | 0.00 | 0.00 | 90 | 1014.1 |
| 20260504021003 | 65 | 196 | 2.6 | 6.1 | 0.00 | 0.00 | 0.00 | 90 | 1014.0 |
| 20260504020506 | 65 | 197 | 1.7 | 6.1 | 0.00 | 0.00 | 0.00 | 90 | 1013.9 |
| 20260504020003 | 65 | 204 | 1.7 | 6.1 | 0.00 | 0.00 | 0.00 | 89 | 1013.8 |
| 20260504015503 | 65 | 205 | 1.7 | 5.2 | 0.00 | 0.00 | 0.00 | 90 | 1013.9 |
| 20260504015003 | 65 | 194 | 1.7 | 7.0 | 0.00 | 0.00 | 0.00 | 90 | 1013.9 |
| 20260504014503 | 65 | 202 | 1.7 | 7.0 | 0.00 | 0.00 | 0.00 | 90 | 1014.2 |
| 20260504014004 | 65 | 210 | 1.7 | 5.2 | 0.00 | 0.00 | 0.00 | 90 | 1014.0 |
| 20260504013503 | 65 | 210 | 1.7 | 7.0 | 0.00 | 0.00 | 0.00 | 90 | 1014.0 |
| 20260504013216 | 65 | 209 | 2.6 | 7.0 | 0.00 | 0.00 | 0.00 | 90 | 1014.3 |
| 20260504012503 | 65 | 206 | 2.6 | 7.0 | 0.00 | 0.00 | 0.00 | 90 | 1014.2 |
| 20260504012004 | 65 | 189 | 2.6 | 7.0 | 0.00 | 0.00 | 0.00 | 90 | 1014.3 |
| 20260504011503 | 65 | 190 | 3.5 | 8.7 | 0.00 | 0.00 | 0.00 | 90 | 1014.4 |
| 20260504011003 | 65 | 205 | 2.6 | 8.7 | 0.00 | 0.00 | 0.00 | 90 | 1014.3 |
| 20260504010504 | 66 | 205 | 2.6 | 7.0 | 0.00 | 0.00 | 0.00 | 90 | 1014.4 |
| 20260504010214 | 66 | 207 | 2.6 | 7.0 | 0.00 | 0.00 | 0.00 | 90 | 1014.5 |
| 20260504005717 | 65 | 203 | 2.6 | 7.0 | 0.00 | 0.00 | 0.00 | 90 | 1014.5 |
| 20260504005004 | 66 | 201 | 1.7 | 7.0 | 0.00 | 0.00 | 0.00 | 90 | 1014.6 |
| 20260504004712 | 66 | 201 | 1.7 | 7.0 | 0.00 | 0.00 | 0.00 | 90 | 1014.4 |
| 20260504004003 | 66 | 201 | 1.7 | 7.8 | 0.00 | 0.00 | 0.00 | 90 | 1014.4 |
| 20260504003503 | 66 | 204 | 1.7 | 6.1 | 0.00 | 0.00 | 0.00 | 90 | 1014.5 |
| 20260504003003 | 66 | 207 | 1.7 | 6.1 | 0.00 | 0.00 | 0.00 | 90 | 1014.5 |
| 20260504002503 | 66 | 201 | 2.6 | 6.1 | 0.00 | 0.00 | 0.00 | 90 | 1014.7 |
| 20260504002004 | 66 | 199 | 2.6 | 6.1 | 0.00 | 0.00 | 0.00 | 90 | 1014.6 |
| 20260504001503 | 66 | 206 | 2.6 | 6.1 | 0.00 | 0.00 | 0.00 | 90 | 1014.5 |
| 20260504001004 | 66 | 213 | 1.7 | 7.0 | 0.00 | 0.00 | 0.00 | 89 | 1014.6 |
| 20260504000504 | 66 | 212 | 1.7 | 7.0 | 0.00 | 0.00 | 0.00 | 89 | 1014.8 |
| 20260504000003 | 66 | 205 | 2.6 | 7.0 | 0.00 | 0.00 | 0.00 | 89 | 1014.7 |
| 20260503235504 | 66 | 205 | 2.6 | 7.0 | 0.00 | 0.00 | 0.00 | 89 | 1014.8 |
| 20260503235009 | 66 | 212 | 1.7 | 5.2 | 0.00 | 0.00 | 0.00 | 89 | 1014.7 |
| 20260503234503 | 66 | 211 | 1.7 | 6.1 | 0.00 | 0.00 | 0.00 | 88 | 1014.7 |
| 20260503234004 | 67 | 207 | 1.7 | 6.1 | 0.00 | 0.00 | 0.00 | 88 | 1014.8 |
| 20260503233714 | 67 | 202 | 1.7 | 6.1 | 0.00 | 0.00 | 0.00 | 88 | 1014.7 |
| 20260503233003 | 67 | 207 | 0.9 | 3.5 | 0.00 | 0.00 | 0.00 | 88 | 1014.5 |
| 20260503232503 | 66 | 204 | 0.9 | 5.2 | 0.00 | 0.00 | 0.00 | 87 | 1015.0 |
| 20260503232004 | 67 | 205 | 1.7 | 5.2 | 0.00 | 0.00 | 0.00 | 87 | 1014.8 |
| 20260503231503 | 67 | 211 | 1.7 | 5.2 | 0.00 | 0.00 | 0.00 | 87 | 1014.9 |
| 20260503231003 | 66 | 215 | 1.7 | 5.2 | 0.00 | 0.00 | 0.00 | 87 | 1014.9 |
| 20260503230717 | 66 | 213 | 1.7 | 3.5 | 0.00 | 0.00 | 0.00 | 87 | 1014.8 |
| 20260503230003 | 66 | 203 | 1.7 | 3.5 | 0.00 | 0.00 | 0.00 | 88 | 1015.0 |
| 20260503225503 | 66 | 205 | 0.9 | 3.5 | 0.00 | 0.00 | 0.00 | 88 | 1015.0 |
| 20260503225003 | 66 | 206 | 1.7 | 6.1 | 0.00 | 0.00 | 0.00 | 88 | 1014.9 |
| 20260503224503 | 66 | 198 | 1.7 | 6.1 | 0.00 | 0.00 | 0.00 | 88 | 1015.0 |
| 20260503224004 | 66 | 197 | 0.9 | 3.5 | 0.00 | 0.00 | 0.00 | 88 | 1015.1 |
| 20260503223715 | 66 | 206 | 0.9 | 3.5 | 0.00 | 0.00 | 0.00 | 88 | 1014.9 |
| 20260503223004 | 67 | 215 | 1.7 | 3.5 | 0.00 | 0.00 | 0.00 | 88 | 1015.1 |
| 20260503222504 | 66 | 214 | 0.9 | 3.5 | 0.00 | 0.00 | 0.00 | 88 | 1015.0 |
| 20260503222004 | 67 | 220 | 0.9 | 3.5 | 0.00 | 0.00 | 0.00 | 88 | 1015.0 |
| 20260503221504 | 66 | 214 | 1.7 | 3.5 | 0.00 | 0.00 | 0.00 | 88 | 1015.0 |
| 20260503221003 | 66 | 214 | 1.7 | 3.5 | 0.00 | 0.00 | 0.00 | 88 | 1015.1 |
| 20260503220503 | 66 | 223 | 0.9 | 2.6 | 0.00 | 0.00 | 0.00 | 88 | 1014.8 |
| 20260503220007 | 66 | 218 | 0.9 | 6.1 | 0.00 | 0.00 | 0.00 | 88 | 1014.9 |
| 20260503215503 | 66 | 210 | 1.7 | 6.1 | 0.00 | 0.00 | 0.00 | 88 | 1015.1 |
| 20260503215005 | 66 | 207 | 1.7 | 5.2 | 0.00 | 0.00 | 0.00 | 88 | 1015.0 |
| 20260503214503 | 66 | 211 | 1.7 | 6.1 | 0.00 | 0.00 | 0.00 | 88 | 1015.0 |
| 20260503214003 | 66 | 213 | 1.7 | 6.1 | 0.00 | 0.00 | 0.00 | 88 | 1014.9 |
| 20260503213504 | 66 | 209 | 1.7 | 5.2 | 0.00 | 0.00 | 0.00 | 88 | 1015.2 |
| 20260503213004 | 67 | 206 | 2.6 | 6.1 | 0.00 | 0.00 | 0.00 | 88 | 1015.2 |
| 20260503212716 | 67 | 209 | 2.6 | 6.1 | 0.00 | 0.00 | 0.00 | 88 | 1015.2 |
| 20260503212214 | 67 | 210 | 2.6 | 6.1 | 0.00 | 0.00 | 0.00 | 88 | 1015.2 |
| 20260503211511 | 67 | 201 | 1.7 | 7.0 | 0.00 | 0.00 | 0.00 | 87 | 1015.3 |
| 20260503211003 | 67 | 202 | 1.7 | 6.1 | 0.00 | 0.00 | 0.00 | 87 | 1015.2 |
| 20260503210509 | 67 | 213 | 1.7 | 5.2 | 0.00 | 0.00 | 0.00 | 87 | 1015.2 |
| 20260503210003 | 67 | 215 | 1.7 | 5.2 | 0.00 | 0.00 | 0.00 | 87 | 1015.2 |
| 20260503205503 | 67 | 210 | 1.7 | 7.0 | 0.00 | 0.00 | 0.00 | 87 | 1015.1 |
| 20260503205003 | 67 | 209 | 0.9 | 7.0 | 0.00 | 0.00 | 0.00 | 86 | 1015.0 |
| 20260503204503 | 67 | 221 | 0.9 | 5.2 | 0.00 | 0.00 | 0.00 | 86 | 1015.0 |
| 20260503204218 | 67 | 225 | 0.9 | 5.2 | 0.00 | 0.00 | 0.00 | 86 | 1015.0 |
| 20260503203503 | 67 | 215 | 1.7 | 5.2 | 0.00 | 0.00 | 0.00 | 87 | 1014.9 |
| 20260503203003 | 67 | 218 | 1.7 | 5.2 | 0.00 | 0.00 | 0.00 | 86 | 1015.0 |
| 20260503202717 | 67 | 216 | 0.9 | 5.2 | 0.00 | 0.00 | 0.00 | 86 | 1014.9 |
| 20260503202003 | 67 | 212 | 1.7 | 3.5 | 0.00 | 0.00 | 0.00 | 86 | 1014.8 |
| 20260503201504 | 67 | 201 | 1.7 | 5.2 | 0.00 | 0.00 | 0.00 | 86 | 1014.9 |
| 20260503201216 | 67 | 198 | 0.9 | 5.2 | 0.00 | 0.00 | 0.00 | 86 | 1014.8 |
| 20260503200714 | 67 | 216 | 0.9 | 3.5 | 0.00 | 0.00 | 0.00 | 85 | 1014.8 |
| 20260503200217 | 67 | 220 | 0.9 | 3.5 | 0.00 | 0.00 | 0.00 | 85 | 1014.8 |
| 20260503195503 | 67 | 217 | 0.9 | 1.7 | 0.00 | 0.00 | 0.00 | 85 | 1014.6 |
| 20260503195003 | 67 | 207 | 0.9 | 3.5 | 0.00 | 0.00 | 0.00 | 85 | 1014.6 |
| 20260503194504 | 68 | 206 | 1.7 | 3.5 | 0.00 | 0.00 | 0.00 | 85 | 1014.4 |
| 20260503194004 | 67 | 212 | 0.9 | 5.2 | 0.00 | 0.00 | 0.00 | 85 | 1014.3 |
| 20260503193503 | 67 | 212 | 0.9 | 5.2 | 0.00 | 0.00 | 0.00 | 85 | 1014.5 |
| 20260503193003 | 67 | 216 | 0.9 | 5.2 | 0.00 | 0.00 | 0.00 | 85 | 1014.2 |
| 20260503192504 | 67 | 220 | 0.9 | 5.2 | 0.00 | 0.00 | 0.00 | 85 | 1014.3 |
| 20260503192003 | 67 | 217 | 1.7 | 3.5 | 0.00 | 0.00 | 0.00 | 85 | 1014.2 |
| 20260503191713 | 67 | 216 | 1.7 | 3.5 | 0.00 | 0.00 | 0.00 | 85 | 1014.0 |
| 20260503191216 | 68 | 220 | 0.9 | 3.5 | 0.00 | 0.00 | 0.00 | 85 | 1013.7 |
| 20260503190503 | 68 | 223 | 0.9 | 3.5 | 0.00 | 0.00 | 0.00 | 85 | 1013.5 |
| 20260503190003 | 67 | 212 | 1.7 | 5.2 | 0.00 | 0.00 | 0.00 | 86 | 1013.6 |
| 20260503185503 | 67 | 209 | 1.7 | 5.2 | 0.00 | 0.00 | 0.00 | 86 | 1013.6 |
| 20260503185003 | 68 | 215 | 1.7 | 5.2 | 0.00 | 0.00 | 0.00 | 86 | 1013.3 |
| 20260503184505 | 67 | 212 | 1.7 | 7.8 | 0.00 | 0.00 | 0.00 | 86 | 1013.4 |
| 20260503184214 | 67 | 203 | 2.6 | 7.8 | 0.00 | 0.00 | 0.00 | 86 | 1013.3 |
| 20260503183503 | 68 | 191 | 1.7 | 6.1 | 0.00 | 0.00 | 0.00 | 85 | 1013.1 |
| 20260503183003 | 68 | 204 | 0.9 | 5.2 | 0.00 | 0.00 | 0.00 | 85 | 1013.1 |
| 20260503182504 | 68 | 196 | 1.7 | 3.5 | 0.00 | 0.00 | 0.00 | 85 | 1013.1 |
| 20260503182006 | 68 | 202 | 1.7 | 6.1 | 0.00 | 0.00 | 0.00 | 85 | 1013.2 |
| 20260503181504 | 68 | 199 | 2.6 | 7.0 | 0.00 | 0.00 | 0.00 | 85 | 1012.9 |
| 20260503181003 | 68 | 196 | 1.7 | 7.0 | 0.00 | 0.00 | 0.00 | 84 | 1013.0 |
| 20260503180715 | 68 | 198 | 0.9 | 7.0 | 0.00 | 0.00 | 0.00 | 84 | 1013.0 |
| 20260503180004 | 69 | 207 | 1.7 | 6.1 | 0.00 | 0.00 | 0.00 | 84 | 1012.8 |
| 20260503175503 | 69 | 209 | 1.7 | 6.1 | 0.00 | 0.00 | 0.00 | 84 | 1012.9 |
| 20260503175004 | 69 | 222 | 1.7 | 3.5 | 0.00 | 0.00 | 0.00 | 83 | 1012.6 |
| 20260503174503 | 69 | 221 | 0.9 | 5.2 | 0.00 | 0.00 | 0.00 | 83 | 1012.7 |
| 20260503174215 | 69 | 213 | 1.7 | 6.1 | 0.00 | 0.00 | 0.00 | 83 | 1012.7 |
| 20260503173503 | 69 | 204 | 1.7 | 7.0 | 0.00 | 0.00 | 0.00 | 83 | 1012.7 |
| 20260503173216 | 69 | 207 | 1.7 | 7.0 | 0.00 | 0.00 | 0.00 | 83 | 1012.7 |
| 20260503172504 | 69 | 200 | 2.6 | 6.1 | 0.00 | 0.00 | 0.00 | 82 | 1012.5 |
| 20260503172003 | 69 | 202 | 3.5 | 7.8 | 0.00 | 0.00 | 0.00 | 82 | 1012.6 |
| 20260503171715 | 69 | 207 | 3.5 | 7.8 | 0.00 | 0.00 | 0.00 | 82 | 1012.4 |
| 20260503171003 | 69 | 195 | 4.3 | 9.6 | 0.00 | 0.00 | 0.00 | 82 | 1012.3 |
| 20260503170503 | 70 | 192 | 4.3 | 9.6 | 0.00 | 0.00 | 0.00 | 81 | 1012.5 |
| 20260503151003 | 72 | 216 | 2.6 | 6.1 | 0.00 | 0.00 | 0.00 | 72 | 1013.3 |
| 20260503150503 | 73 | 218 | 2.6 | 7.0 | 0.00 | 0.00 | 0.00 | 71 | 1013.3 |
| 20260503131003 | 75 | 195 | 3.5 | 7.8 | 0.00 | 0.00 | 0.00 | 66 | 1014.2 |
| 20260503130504 | 75 | 201 | 2.6 | 7.8 | 0.00 | 0.00 | 0.00 | 66 | 1014.2 |
| 20260503130216 | 75 | 195 | 2.6 | 8.7 | 0.00 | 0.00 | 0.00 | 66 | 1014.3 |
| 20260503110505 | 70 | 307 | 2.6 | 6.1 | 0.00 | 0.00 | 0.00 | 74 | 1015.8 |